Location: Branche des Alpilles
(43.6087°N, 4.6976°E)
Time: 18:22:01
(UTC+00:00)

Cosmos 2112 Rocket - Pass Details

Date: 30 November 2020
Orbit: 756 x 787 km, 74.0° (Epoch: 22 January)

Event Time Altitude Azimuth Distance (km) Brightness Sun altitude
Rises 18:37:43 0° 197° (SSW) 3,226 7.5 -26.8°
Reaches altitude 10° 18:40:04 10° 197° (SSW) 2,308 6.7 -27.3°
Enters shadow 18:44:14 57° 191° (SSW) 907 4.3 -28.0°
